| time (UTC) | temp F | wind direction | speed knots | gust knots | rain 1hr in | rain 24hr in | rain mn in | humidity % | barometer mb |
| 20260504160326 | 50 | 5 | 10.4 | 18.2 | 0.00 | 0.00 | 0.00 | 53 | 1010.5 |
| 20260504150332 | 50 | 9 | 15.6 | 23.5 | 0.00 | 0.00 | 0.00 | 51 | 1009.5 |
| 20260504140338 | 50 | 340 | 14.8 | 20.9 | 0.00 | 0.00 | 0.00 | 55 | 1008.6 |
| 20260504130328 | 47 | 245 | 7.8 | 9.6 | 0.00 | 0.00 | 0.00 | 57 | 1006.4 |
| 20260504110335 | 45 | 311 | 2.6 | 6.1 | 0.00 | 0.00 | 0.00 | 59 | 1006.1 |
| 20260504100336 | 45 | 326 | 1.7 | 6.1 | 0.00 | 0.00 | 0.00 | 61 | 1006.1 |
| 20260504080335 | 46 | 238 | 5.2 | 7.0 | 0.00 | 0.00 | 0.00 | 59 | 1006.7 |
| 20260504070329 | 44 | 336 | 0.9 | 3.5 | 0.00 | 0.00 | 0.00 | 65 | 1007.3 |
| 20260504050322 | 47 | 234 | 3.5 | 4.3 | 0.00 | 0.00 | 0.00 | 61 | 1008.1 |
| 20260504043329 | 46 | 271 | 1.7 | 3.5 | 0.00 | 0.00 | 0.00 | 61 | 1008.4 |
| 20260504040336 | 45 | 294 | 2.6 | 3.5 | 0.00 | 0.00 | 0.00 | 63 | 1008.6 |
| 20260504033319 | 48 | 294 | 1.7 | 2.6 | 0.00 | 0.00 | 0.00 | 58 | 1008.6 |
| 20260504030345 | 53 | 215 | 2.6 | 2.6 | 0.00 | 0.00 | 0.00 | 49 | 1008.6 |
| 20260504023349 | 56 | 168 | 4.3 | 5.2 | 0.00 | 0.00 | 0.00 | 45 | 1008.6 |
| 20260504020330 | 58 | 262 | 1.7 | 2.6 | 0.00 | 0.00 | 0.00 | 42 | 1008.4 |
| 20260504013333 | 63 | 118 | 1.7 | 2.6 | 0.00 | 0.00 | 0.00 | 37 | 1008.3 |
| 20260504010329 | 65 | 138 | 0.0 | 2.6 | 0.00 | 0.00 | 0.00 | 33 | 1008.7 |
| 20260504003400 | 64 | 100 | 3.5 | 7.0 | 0.00 | 0.00 | 0.00 | 34 | 1008.8 |
| 20260504000339 | 64 | 113 | 3.5 | 6.1 | 0.00 | 0.00 | 0.00 | 36 | 1009.3 |
| 20260503233334 | 64 | 91 | 1.7 | 8.7 | 0.00 | 0.00 | 0.00 | 37 | 1009.3 |
| 20260503230329 | 64 | 26 | 7.8 | 12.2 | 0.00 | 0.00 | 0.00 | 37 | 1009.4 |
| 20260503223335 | 61 | 45 | 10.4 | 13.0 | 0.00 | 0.00 | 0.00 | 43 | 1009.9 |
| 20260503220323 | 59 | 33 | 9.6 | 16.5 | 0.00 | 0.00 | 0.00 | 50 | 1010.4 |
| 20260503213325 | 66 | 347 | 10.4 | 26.9 | 0.00 | 0.00 | 0.00 | 29 | 1009.8 |
| 20260503210323 | 59 | 306 | 5.2 | 12.2 | 0.00 | 0.00 | 0.00 | 41 | 1010.2 |
| 20260503203328 | 61 | 321 | 15.6 | 32.2 | 0.00 | 0.00 | 0.00 | 35 | 1010.5 |
| 20260503200324 | 69 | 215 | 8.7 | 16.5 | 0.00 | 0.00 | 0.00 | 24 | 1010.4 |
| 20260503193329 | 67 | 222 | 6.1 | 16.5 | 0.00 | 0.00 | 0.00 | 27 | 1011.1 |
| 20260503190339 | 67 | 302 | 7.0 | 12.2 | 0.00 | 0.00 | 0.00 | 31 | 1011.5 |
| 20260503183325 | 65 | 238 | 2.6 | 9.6 | 0.00 | 0.00 | 0.00 | 33 | 1012.2 |
| 20260503180336 | 62 | 293 | 4.3 | 9.6 | 0.00 | 0.00 | 0.00 | 36 | 1012.6 |
| 20260503173330 | 61 | 284 | 1.7 | 7.8 | 0.00 | 0.00 | 0.00 | 39 | 1013.3 |
| 20260503170344 | 59 | 177 | 3.5 | 7.0 | 0.00 | 0.00 | 0.00 | 42 | 1013.5 |